Weather History for KPGA - November, 2012

Change the Weather History Date:

Wednesday, November 21, 2012

  Actual Average Record
Temperature  
Mean Temperature 48 °F -  
Max Temperature 59 °F 50 °F 64 °F (2003)
Min Temperature 37 °F 31 °F 22 °F (1964)
Degree Days  
Heating Degree Days 17    
Moisture  
Dew Point 24 °F    
Average Humidity 39    
Maximum Humidity 55    
Minimum Humidity 17    
Precipitation  
Precipitation 0.00 in - - ()
Sea Level Pressure  
Sea Level Pressure 30.08 in    
Wind  
Wind Speed 3 mph (WSW)    
Max Wind Speed 6 mph    
Max Gust Speed -    
Visibility 8 miles    
Events      
Averages and records for this station are not official NWS values.
T = Trace of Precipitation, MM = Missing Value Source: NWS Daily Summary

Daily Weather History Graph

Daily Weather History Graph

Search for Another Location

Airport or City:

Trip Planner

Search our weather history database for the weather conditions in past years. The results will help you decide how hot, cold, wet, or windy it might be!

Date:

Astronomy

Nov. 21, 2012 Rise Set
Actual Time 7:10 AM MST 5:12 PM MST
Civil Twilight 6:42 AM MST 5:40 PM MST
Nautical Twilight 6:11 AM MST 6:12 PM MST
Astronomical Twilight 5:40 AM MST 6:43 PM MST
Moon 1:22 PM MST (11/21) 12:42 AM MST (11/21)
Length of Visible Light 10h 57m
Length of Day
10h 01m
Waxing Gibbous, 62% of the Moon is Illuminated
Nov 21
Waxing Gibbous
Nov 28
Full
Dec 6
Last Quarter
Dec 13
New
Dec 19
First Quarter

Hourly Weather History & Observations

Time (MST) Temp. Windchill Dew Point Humidity Pressure Visibility Wind Dir Wind Speed Gust Speed Precip Events Conditions
12:53 AM 44.1 °F 41.5 °F 23.0 °F 43% 30.12 in 3.0 mi WSW 4.6 mph - N/A   Haze
1:53 AM 44.1 °F 41.5 °F 23.0 °F 43% 30.11 in 6.0 mi SSW 4.6 mph - N/A   Haze
2:53 AM 41.0 °F 39.0 °F 23.0 °F 49% 30.11 in 4.0 mi SW 3.5 mph - N/A   Haze
3:53 AM 42.1 °F 39.2 °F 24.1 °F 49% 30.10 in 4.0 mi West 4.6 mph - N/A   Haze
4:53 AM 39.9 °F - 23.0 °F 51% 30.11 in 7.0 mi Calm Calm - N/A   Clear
5:53 AM 39.9 °F 37.8 °F 25.0 °F 55% 30.13 in 5.0 mi WSW 3.5 mph - N/A   Haze
6:53 AM 39.0 °F 36.8 °F 24.1 °F 55% 30.15 in 4.0 mi WNW 3.5 mph - N/A   Haze
7:53 AM 42.1 °F - 24.1 °F 49% 30.15 in 4.0 mi Calm Calm - N/A   Haze
8:53 AM 45.0 °F - 25.0 °F 46% 30.17 in 10.0 mi Calm Calm - N/A   Clear
9:53 AM 46.9 °F - 25.0 °F 42% 30.16 in 10.0 mi Calm Calm - N/A   Clear
10:53 AM 50.0 °F - 26.1 °F 39% 30.13 in 10.0 mi NE 4.6 mph - N/A   Clear
11:53 AM 51.1 °F - 25.0 °F 36% 30.12 in 10.0 mi NNW 5.8 mph - N/A   Clear
12:53 PM 53.1 °F - 26.1 °F 35% 30.07 in 10.0 mi Calm Calm - N/A   Clear
1:53 PM 57.0 °F - 25.0 °F 29% 30.04 in 10.0 mi Calm Calm - N/A   Clear
2:53 PM 59.0 °F - 25.0 °F 27% 30.02 in 10.0 mi Variable 4.6 mph - N/A   Clear
3:53 PM 59.0 °F - 23.0 °F 25% 30.01 in 10.0 mi NE 4.6 mph - N/A   Clear
4:53 PM 55.9 °F - 24.1 °F 29% 30.01 in 10.0 mi Calm Calm - N/A   Clear
5:53 PM 51.1 °F - 24.1 °F 35% 30.03 in 10.0 mi Calm Calm - N/A   Clear
6:53 PM 50.0 °F - 24.1 °F 36% 30.04 in 10.0 mi South 3.5 mph - N/A   Clear
7:53 PM 50.0 °F - 25.0 °F 38% 30.04 in 9.0 mi Calm Calm - N/A   Clear
8:53 PM 46.9 °F - 24.1 °F 41% 30.04 in 9.0 mi Calm Calm - N/A   Clear
9:53 PM 46.0 °F - 25.0 °F 44% 30.06 in 10.0 mi Calm Calm - N/A   Clear
10:53 PM 46.9 °F - 24.1 °F 41% 30.05 in 10.0 mi SW 4.6 mph - N/A   Clear
11:53 PM 45.0 °F 43.5 °F 24.1 °F 44% 30.06 in 10.0 mi SW 3.5 mph - N/A   Clear